Temperature
15 14 14 13 13 13 13 12 11 11 11 10 10 9 9 9 9 8 8 8 8 8 8 8 8 8 9 9 9 10 10 10 10 10 9 9 8 9 9 10 11 11 11
17 15 14 14 13 13 13 12 12 11 11 10 10 9 9 9 9 8 8 8 8 8 8 8 8 8 8 9 9 9 10 10 10 10 10 9 8 8 8 9 9 9 10
17 16 14 14 14 13 13 13 12 11 11 10 10 9 9 9 8 8 8 8 8 8 7 7 7 8 8 9 9 9 10 10 10 10 9 9 8 7 8 8 8 8 9
17 16 15 14 14 13 13 13 12 12 11 10 10 9 9 9 8 8 8 8 8 8 7 7 7 7 8 8 8 9 9 10 9 9 9 9 8 7 7 7 7 8 8
17 16 15 14 14 13 13 13 13 12 11 10 10 9 9 9 8 8 8 8 8 8 8 8 7 8 8 8 8 8 9 9 9 9 9 8 7 6 6 6 7 7 7
18 16 15 14 13 13 13 13 13 12 11 11 10 10 9 9 9 9 9 9 9 8 8 8 8 8 8 8 8 8 9 9 9 9 8 8 7 6 6 6 6 6 6
18 17 15 14 13 13 13 13 12 12 12 11 10 10 9 9 9 9 9 9 9 9 9 9 8 8 8 8 8 8 9 9 8 8 8 8 7 6 6 6 6 6 6
18 17 16 14 13 12 12 12 12 12 12 11 11 10 10 10 10 10 10 9 9 9 9 9 9 9 9 9 9 8 9 9 8 8 8 8 7 6 6 6 6 6 6
17 17 16 14 13 12 12 12 12 12 12 11 11 11 10 10 10 10 10 10 10 9 9 9 9 9 9 9 9 8 9 8 8 8 8 8 7 6 6 6 6 6 6
16 16 15 15 13 12 12 12 12 12 12 12 11 11 11 11 10 10 10 10 10 10 9 9 9 9 9 9 9 8 8 8 8 8 8 8 7 7 6 7 7 6 6
15 15 15 14 14 13 12 12 11 11 11 11 11 11 11 11 11 10 10 10 10 10 9 9 9 9 9 9 8 8 8 8 8 8 8 8 7 7 7 7 7 7 7
17 16 15 14 14 13 12 12 12 12 11 12 12 11 11 11 11 10 10 10 10 10 9 9 9 9 9 9 9 8 8 8 8 8 8 8 8 7 7 7 7 6 6
18 17 16 15 14 13 12 12 12 12 12 12 12 11 11 11 11 11 10 10 10 10 10 9 9 9 9 9 9 8 8 8 8 8 8 8 7 7 7 7 7 6 6
17 17 16 15 14 13 13 12 12 12 12 12 12 12 11 11 11 11 11 10 10 10 9 9 9 9 9 9 8 8 8 8 8 8 8 8 7 7 7 7 7 6 6
17 17 16 16 15 14 13 12 12 12 12 12 12 12 11 11 11 11 10 10 10 9 9 9 9 9 9 8 8 8 8 8 8 8 8 7 7 7 7 7 6 6 6
17 17 16 16 15 14 13 13 13 12 12 11 11 11 11 11 11 11 10 10 10 9 9 9 8 8 8 8 8 8 8 8 8 8 7 7 7 7 7 7 6 6 6
18 17 16 16 15 14 14 13 13 12 12 12 12 11 11 11 11 10 10 10 10 9 9 8 8 8 8 8 8 8 8 8 8 7 7 7 7 7 7 6 6 6 6
18 18 17 15 15 14 14 13 13 12 12 12 11 11 11 11 10 10 10 10 9 9 8 8 8 8 8 8 8 8 8 7 7 7 7 7 7 7 6 6 6 6 5
19 18 17 16 15 15 14 13 12 12 11 11 11 11 11 10 10 10 10 10 9 9 8 8 8 8 8 8 8 7 7 7 7 7 7 7 7 7 6 6 6 5 5
18 18 17 16 15 14 13 12 11 11 10 10 10 10 10 10 9 9 9 9 9 8 8 8 8 8 7 7 7 7 7 7 7 7 7 7 7 7 6 6 6 5 5
18 17 17 16 15 14 13 12 12 11 11 11 10 10 9 9 9 9 8 8 8 8 8 8 7 7 7 6 6 6 6 7 7 7 7 7 7 7 7 6 6 5 5
17 17 16 16 15 14 14 13 13 12 11 11 10 9 9 9 8 8 8 7 7 7 7 7 7 6 6 6 5 5 4 6 7 8 8 8 8 7 7 6 6 6 5
16 16 15 15 15 14 14 13 12 11 11 10 10 10 10 9 8 8 7 7 7 6 6 6 6 6 6 5 5 4 4 4 6 7 7 7 7 7 7 6 6 5 5
15 15 15 14 14 13 13 12 12 11 11 11 11 10 10 9 8 8 7 7 6 6 6 6 5 5 5 4 4 4 4 4 3 4 5 5 5 5 5 5 5 5 5
15 15 14 14 13 13 12 12 11 11 11 10 10 9 9 9 8 8 7 7 6 6 6 5 5 5 4 4 4 4 3 3 2 1 2 3 3 4 4 4 4 4 4
14 14 13 13 13 12 11 11 11 10 10 9 9 9 9 8 8 7 7 6 6 6 6 5 5 5 4 4 3 3 2 2 1 1 -0 1 1 2 2 2 2 3 3
Wind_Speed
10 21 26 24 23 21 19 17 16 15 14 13 13 12 12 12 13 13 13 13 13 14 15 15 15 16 16 16 16 16 17 17 18 20 20 20 20 21 20 20 19 19 21
15 27 28 27 25 23 21 19 17 16 15 14 13 13 12 12 12 12 12 12 12 13 13 14 14 14 15 15 15 15 16 16 17 18 18 18 18 19 19 19 19 18 20
19 28 29 28 26 24 22 21 19 17 16 15 14 13 13 12 12 12 12 12 11 12 12 12 13 13 13 13 13 14 15 15 15 16 17 18 15 17 18 18 18 18 19
24 28 27 29 27 25 23 22 20 19 17 16 15 14 13 13 12 12 12 11 11 11 11 11 11 12 12 12 12 13 13 14 14 15 16 16 13 15 16 16 17 17 17
24 26 28 30 28 26 24 23 21 20 19 17 16 15 14 13 13 12 12 11 11 10 10 10 10 10 11 11 11 12 12 12 12 13 16 16 13 13 14 15 15 15 16
19 25 27 30 28 27 25 24 22 21 20 19 17 16 15 14 13 13 12 11 11 10 9 9 9 9 9 9 9 10 11 11 9 11 13 14 12 11 13 13 13 14 14
18 25 27 30 28 27 26 25 23 22 21 20 19 17 16 15 14 13 13 12 11 10 9 8 8 8 8 8 8 8 9 9 7 7 9 12 9 11 11 11 12 12 12
19 25 26 29 28 27 26 25 24 23 22 20 20 18 17 16 15 14 14 13 11 10 9 8 7 7 6 6 6 7 8 8 6 3 6 10 8 9 10 10 10 11 11
19 21 22 26 27 27 26 26 25 24 23 21 21 20 18 17 17 16 15 14 12 11 10 9 7 6 5 5 5 5 7 7 7 3 3 6 6 7 8 8 9 9 9
12 15 19 21 24 25 25 26 25 24 23 22 21 20 19 18 18 17 16 15 14 12 11 10 8 7 6 5 4 5 5 6 7 4 1 4 4 5 6 6 7 7 8
13 12 16 17 20 22 23 25 25 25 24 23 22 21 20 18 18 17 17 16 15 14 13 11 10 9 8 6 5 5 5 6 6 5 3 3 2 3 4 5 5 6 6
19 18 14 17 18 19 21 22 21 22 22 22 21 21 20 18 17 16 17 18 17 15 14 13 12 10 9 8 7 6 6 7 7 7 6 4 2 2 3 3 3 4 5
18 17 17 16 19 19 18 18 17 19 19 20 21 21 19 18 17 16 16 16 16 16 14 12 11 10 9 10 10 9 9 9 9 9 8 6 5 4 3 3 3 3 4
13 18 18 16 17 20 19 17 16 16 16 17 20 23 20 16 15 15 15 15 14 14 13 13 11 11 12 13 13 12 12 12 12 12 11 9 8 7 6 5 5 5 5
15 18 17 16 16 18 17 17 17 17 18 18 20 22 22 17 13 14 15 16 16 15 15 14 13 13 13 14 14 14 14 14 14 14 14 12 11 10 9 8 8 7 7
20 19 17 19 18 17 16 14 16 19 19 19 21 23 24 21 17 15 14 15 17 18 17 16 15 13 13 13 13 15 16 16 16 16 17 16 14 13 12 11 11 10 10
20 17 18 19 16 17 16 17 18 20 21 21 22 24 25 24 21 18 14 14 17 19 18 16 15 13 10 10 10 14 15 16 17 18 18 18 18 16 16 15 14 13 13
16 16 18 17 17 18 16 16 17 20 21 22 23 24 26 26 24 20 15 14 19 18 16 11 8 6 8 8 7 8 12 14 17 19 19 19 19 18 18 18 17 16 15
16 15 16 17 18 18 15 14 15 16 19 21 22 23 25 26 26 23 18 17 18 15 14 11 8 7 8 9 9 8 7 9 13 16 17 20 21 21 21 20 20 19 18
12 13 14 16 16 14 11 8 8 10 11 17 20 22 23 25 26 24 18 17 17 10 10 9 9 8 7 8 9 9 8 8 11 13 16 19 20 22 22 21 21 20 20
8 11 13 15 14 11 8 10 11 14 11 9 14 20 22 24 24 23 17 14 14 12 13 13 10 10 9 4 4 6 7 10 14 13 14 14 18 21 21 21 21 21 20
4 8 10 13 12 13 14 12 8 8 7 8 8 14 20 22 23 23 18 12 12 12 13 13 12 8 7 7 6 3 6 6 9 15 14 14 13 16 18 21 21 21 20
2 5 8 10 11 12 12 6 3 2 2 4 8 9 14 21 23 23 21 17 13 14 15 16 15 14 12 9 9 6 5 8 4 5 9 12 11 11 11 16 20 22 21
5 3 3 5 7 8 9 8 10 11 12 13 11 10 10 17 20 23 21 20 16 15 17 17 16 15 14 13 8 11 9 5 4 5 4 6 9 12 11 12 16 20 21
7 5 3 1 3 5 7 10 11 13 14 10 7 9 11 11 16 20 21 18 17 17 18 17 16 17 16 17 13 7 12 11 9 7 11 5 4 7 9 10 10 15 19
8 7 6 4 2 3 6 8 11 14 14 12 11 11 11 10 11 15 17 17 18 18 19 19 18 19 18 18 16 13 9 8 9 12 17 14 8 6 8 10 10 13 18
Wind_Direction
188 181 177 171 168 166 164 161 156 151 146 141 136 131 124 116 110 106 101 96 91 88 85 82 80 77 74 73 72 71 70 67 61 54 52 58 65 64 63 62 58 51 53
167 176 176 173 171 169 167 165 161 157 154 149 143 139 133 126 120 113 107 102 98 93 90 86 83 80 77 75 75 75 74 71 66 57 47 40 55 65 62 60 59 56 54
163 172 175 174 173 172 170 167 165 162 160 156 151 146 141 135 128 122 116 110 105 99 95 91 87 83 80 78 78 78 77 75 68 55 39 25 36 63 61 60 58 56 54
165 172 175 176 175 174 172 170 169 167 165 162 158 155 150 145 138 133 126 121 115 109 103 98 93 88 83 80 82 82 80 77 68 49 30 21 27 61 61 59 57 56 54
168 173 176 178 177 176 174 173 172 171 169 167 165 162 159 154 149 143 138 133 126 120 113 106 100 93 88 84 85 88 87 82 67 41 27 20 21 59 62 59 57 55 53
170 174 179 180 180 179 178 176 176 175 173 172 170 168 166 162 157 153 148 143 138 132 125 117 109 101 95 89 89 95 96 90 67 41 24 15 16 58 62 59 57 55 53
171 175 182 183 183 182 181 180 179 178 178 176 175 173 172 168 164 161 158 155 151 145 139 132 123 114 104 97 95 101 107 106 88 46 17 5 14 58 60 57 54 53 52
171 175 184 186 187 186 185 184 183 182 182 181 180 179 178 175 172 171 169 166 163 159 154 148 140 131 121 111 107 110 115 119 116 69 7 355 23 55 56 54 51 50 49
172 177 186 190 190 190 190 189 187 187 186 185 185 184 183 182 181 179 178 176 174 172 169 165 160 154 145 132 127 127 126 129 134 127 352 343 25 49 52 49 45 45 44
175 183 189 192 191 192 193 193 192 191 191 190 190 189 188 188 189 187 186 185 184 183 182 181 179 178 174 163 156 151 142 142 151 161 270 326 21 39 45 44 39 37 38
187 192 191 194 191 191 192 196 196 196 195 195 194 194 193 192 193 193 189 193 193 193 193 194 194 195 196 195 190 180 164 167 178 191 226 286 2 18 28 31 27 25 26
194 195 194 194 191 188 193 198 197 197 198 196 195 194 192 189 192 193 195 201 202 202 203 204 206 207 206 213 222 205 191 194 198 205 225 249 286 324 349 2 4 3 6
195 194 196 195 192 190 193 195 196 195 196 195 193 191 188 188 193 199 202 210 210 208 207 211 215 209 211 217 224 224 216 212 211 214 225 241 254 272 290 304 315 322 330
192 198 197 194 193 194 194 195 195 195 195 195 194 191 186 188 195 201 206 212 211 206 203 211 217 220 225 228 227 226 224 222 222 223 229 240 247 256 267 275 282 289 296
200 200 197 195 196 195 196 198 199 200 200 198 196 195 193 193 199 204 210 212 213 210 207 211 220 226 232 235 234 230 227 227 227 228 232 241 247 251 257 264 269 274 279
209 204 197 197 198 195 199 202 204 204 202 200 201 202 200 200 201 203 209 212 214 213 213 214 218 223 230 232 235 233 231 231 231 232 234 239 246 249 253 258 262 265 268
211 205 199 199 197 198 201 203 205 204 203 206 208 206 206 206 205 205 208 213 216 216 216 218 223 226 231 232 236 235 234 233 233 234 235 237 241 246 251 254 256 258 261
211 206 204 202 199 202 204 203 206 205 206 210 210 209 210 210 208 207 211 216 215 212 211 212 214 218 229 229 234 235 235 234 236 236 236 236 236 239 245 251 253 255 256
210 206 203 203 202 203 204 203 205 205 208 212 211 212 212 212 211 210 215 217 210 209 212 218 215 211 223 229 235 240 239 237 238 239 236 235 234 235 238 244 249 251 252
207 204 204 205 207 201 196 196 201 209 213 212 213 215 211 212 211 212 217 214 207 208 215 217 219 214 221 224 241 249 243 240 240 239 238 238 235 234 235 235 240 246 250
196 199 202 204 206 194 192 200 207 217 216 214 216 215 212 212 210 212 219 213 209 216 220 216 217 221 226 196 230 272 267 244 243 240 237 235 235 232 229 229 230 233 240
212 212 209 208 203 200 207 208 209 215 218 218 218 217 215 215 214 215 218 217 212 218 222 218 212 220 222 191 193 222 287 290 243 237 231 231 233 229 228 228 226 226 228
307 237 223 218 211 209 207 196 195 191 252 223 221 223 219 217 217 219 220 220 216 216 225 222 215 216 226 211 199 188 213 247 293 257 234 232 228 224 227 228 226 226 225
336 310 258 233 219 213 199 198 203 214 227 230 228 227 222 218 220 221 223 222 221 221 226 224 219 219 219 226 215 221 224 198 232 293 263 236 229 227 224 226 227 225 224
1 1 347 304 230 214 205 209 215 230 239 244 236 233 232 226 224 224 224 225 226 226 228 226 222 218 219 226 221 210 228 236 231 246 271 269 255 235 225 223 224 224 223
8 12 12 11 316 234 217 220 224 235 243 249 247 243 243 238 233 229 227 228 229 230 230 228 226 222 223 225 226 220 210 214 217 224 245 255 248 233 224 221 222 224 225
Height
1553 1556 1559 1561 1563 1565 1566 1566 1567 1568 1568 1568 1568 1568 1567 1567 1567 1566 1566 1565 1564 1564 1563 1562 1560 1559 1558 1557 1557 1556 1556 1555 1555 1555 1554 1555 1554 1554 1553 1552 1552 1551 1551
1551 1553 1556 1559 1561 1563 1564 1565 1566 1566 1567 1567 1567 1567 1567 1567 1566 1566 1565 1565 1564 1564 1563 1562 1561 1560 1559 1558 1557 1557 1556 1556 1556 1555 1555 1554 1555 1555 1554 1553 1553 1552 1552
1549 1551 1554 1556 1559 1561 1562 1563 1564 1565 1565 1566 1566 1566 1566 1566 1566 1566 1565 1565 1564 1564 1563 1562 1561 1560 1559 1559 1558 1557 1557 1556 1556 1556 1556 1555 1555 1555 1554 1554 1553 1552 1552
1547 1549 1551 1554 1557 1559 1560 1562 1563 1563 1564 1565 1565 1565 1566 1566 1565 1565 1565 1564 1564 1563 1563 1562 1561 1561 1560 1559 1558 1558 1557 1557 1557 1557 1556 1555 1555 1556 1555 1554 1553 1552 1552
1546 1548 1550 1552 1554 1556 1558 1560 1561 1562 1562 1563 1564 1564 1564 1565 1565 1564 1564 1564 1563 1563 1563 1562 1562 1561 1560 1560 1559 1558 1558 1558 1557 1557 1556 1556 1555 1556 1555 1554 1553 1552 1552
1544 1546 1548 1550 1552 1554 1556 1558 1559 1560 1561 1562 1562 1563 1563 1563 1564 1563 1563 1563 1563 1563 1563 1562 1562 1561 1561 1560 1559 1559 1558 1558 1558 1557 1557 1556 1555 1556 1555 1554 1553 1552 1551
1542 1544 1546 1548 1550 1552 1554 1556 1557 1558 1559 1560 1561 1561 1562 1562 1563 1563 1563 1563 1563 1563 1563 1562 1562 1561 1561 1560 1560 1559 1558 1558 1558 1557 1557 1556 1555 1556 1555 1554 1553 1552 1551
1541 1542 1544 1546 1548 1550 1552 1554 1555 1556 1558 1559 1559 1560 1561 1561 1561 1562 1562 1562 1562 1562 1562 1562 1562 1561 1561 1560 1560 1559 1559 1558 1558 1557 1557 1556 1556 1555 1554 1553 1552 1552 1551
1540 1541 1542 1544 1546 1548 1550 1551 1553 1554 1556 1557 1558 1559 1559 1560 1560 1560 1561 1561 1561 1561 1561 1561 1561 1561 1560 1560 1560 1559 1558 1558 1558 1557 1556 1556 1555 1555 1554 1553 1552 1551 1550
1537 1539 1540 1541 1543 1545 1547 1549 1551 1552 1554 1555 1556 1557 1557 1558 1559 1559 1559 1560 1560 1560 1560 1560 1560 1560 1560 1559 1559 1558 1558 1558 1557 1557 1556 1555 1555 1554 1553 1552 1551 1551 1550
1534 1535 1537 1539 1540 1542 1544 1546 1548 1550 1551 1552 1553 1554 1555 1556 1557 1558 1558 1558 1558 1559 1559 1559 1559 1559 1558 1558 1558 1557 1557 1557 1557 1556 1555 1555 1554 1553 1552 1551 1551 1550 1549
1528 1530 1533 1535 1537 1539 1541 1543 1544 1546 1548 1549 1551 1552 1553 1554 1555 1556 1556 1556 1557 1557 1557 1557 1557 1557 1557 1557 1556 1556 1556 1555 1555 1555 1554 1553 1553 1552 1551 1550 1549 1548 1547
1525 1527 1528 1531 1533 1535 1537 1539 1541 1543 1544 1546 1547 1549 1550 1551 1552 1553 1553 1554 1554 1555 1555 1555 1555 1555 1555 1555 1554 1554 1554 1553 1553 1553 1552 1552 1551 1550 1549 1548 1547 1546 1545
1521 1522 1524 1527 1529 1531 1533 1535 1537 1539 1540 1542 1544 1546 1547 1548 1549 1550 1551 1551 1552 1552 1552 1553 1553 1552 1552 1552 1552 1552 1551 1551 1551 1550 1550 1549 1549 1548 1547 1546 1545 1544 1543
1516 1518 1520 1522 1524 1527 1529 1531 1533 1534 1536 1538 1540 1542 1543 1544 1546 1547 1548 1549 1549 1549 1550 1550 1550 1550 1549 1549 1549 1548 1548 1548 1547 1547 1547 1546 1545 1545 1544 1543 1542 1541 1540
1511 1513 1515 1517 1520 1522 1524 1526 1527 1530 1532 1534 1536 1537 1539 1541 1542 1543 1544 1545 1546 1546 1547 1547 1547 1546 1546 1546 1545 1545 1544 1544 1543 1543 1543 1542 1542 1541 1541 1540 1539 1538 1537
1507 1509 1511 1513 1515 1517 1519 1521 1523 1525 1527 1529 1530 1533 1535 1536 1537 1539 1540 1540 1542 1543 1543 1543 1543 1542 1542 1541 1541 1541 1540 1540 1539 1538 1538 1538 1537 1537 1536 1535 1535 1534 1533
1503 1505 1507 1509 1510 1512 1514 1516 1518 1519 1521 1523 1525 1527 1529 1531 1532 1533 1534 1535 1537 1538 1538 1538 1538 1537 1537 1536 1536 1536 1535 1534 1534 1533 1532 1532 1532 1531 1531 1530 1530 1529 1528
1499 1501 1504 1505 1506 1508 1510 1512 1513 1515 1516 1517 1519 1520 1522 1524 1526 1527 1528 1529 1532 1532 1532 1532 1532 1531 1531 1531 1530 1530 1529 1527 1527 1526 1525 1525 1525 1525 1525 1525 1524 1523 1523
1496 1498 1500 1502 1503 1505 1507 1509 1509 1510 1510 1511 1512 1513 1515 1517 1519 1520 1521 1522 1524 1524 1524 1524 1524 1524 1524 1525 1524 1522 1520 1519 1518 1517 1517 1517 1517 1517 1518 1518 1517 1517 1517
1494 1495 1497 1498 1500 1501 1502 1503 1504 1503 1504 1505 1506 1507 1508 1510 1511 1512 1513 1514 1515 1515 1516 1517 1517 1517 1516 1518 1517 1513 1510 1510 1508 1507 1508 1508 1508 1509 1509 1509 1510 1510 1510
1494 1494 1494 1495 1496 1497 1498 1499 1500 1500 1500 1501 1502 1502 1502 1503 1504 1504 1505 1505 1506 1507 1507 1508 1508 1508 1508 1510 1509 1507 1502 1498 1495 1496 1497 1497 1497 1499 1499 1501 1501 1502 1503
1494 1493 1493 1493 1493 1494 1495 1496 1496 1496 1495 1495 1495 1495 1496 1496 1496 1496 1496 1496 1496 1497 1496 1497 1498 1499 1498 1499 1500 1500 1498 1490 1488 1485 1485 1486 1487 1488 1490 1491 1492 1494 1495
1494 1492 1491 1491 1491 1491 1492 1492 1491 1490 1488 1488 1489 1488 1489 1489 1488 1487 1487 1487 1486 1486 1485 1486 1487 1487 1488 1487 1487 1487 1487 1487 1486 1478 1476 1477 1478 1478 1480 1482 1483 1485 1486
1495 1493 1491 1490 1489 1489 1489 1488 1487 1486 1484 1483 1483 1481 1480 1480 1479 1478 1477 1477 1476 1475 1474 1475 1475 1475 1475 1475 1475 1475 1475 1475 1475 1474 1467 1466 1466 1467 1470 1473 1475 1476 1478
1495 1493 1491 1490 1488 1487 1486 1485 1484 1482 1480 1478 1476 1474 1473 1471 1470 1469 1468 1467 1465 1464 1463 1463 1463 1463 1462 1462 1463 1462 1462 1462 1460 1461 1460 1456 1456 1457 1461 1463 1465 1467 1468